Location: Driftpile
(55.3500°N, 115.7667°W)
Time: 08:49:10
(UTC+00:00)

N. Korean satellite - Pass Details

Date: 27 November 2021
Orbit: 447 x 490 km, 97.3° (Epoch: 26 January)

Event Time Altitude Azimuth Distance (km) Brightness Sun altitude
Rises 23:59:24 0° 169° (SSE) 2,554 10.5 -5.2°
Reaches altitude 10° 00:01:28 10° 171° (S) 1,671 9.6 -5.5°
Maximum altitude 00:05:04 74° 257° (WSW) 508 6.8 -5.9°
Drops below altitude 10° 00:08:38 10° 343° (NNW) 1,659 9.2 -6.4°
Sets 00:10:41 0° 345° (NNW) 2,533 10.1 -6.6°
